Time,TemperatureF,DewpointF,PressureIn,WindDirection,WindDirectionDegrees,WindSpeedMPH,WindSpeedGustMPH,Humidity,HourlyPrecipIn,Conditions,Clouds,dailyrainin,SoftwareType,DateUTC
2013-11-08 00:10:00,38.8,29.2,29.90,West,270,4.2,-999.0,68,-99.99,,,0.00,Acu-Link.com,2013-11-08 05:10:00,
2013-11-08 00:25:00,39.4,29.4,29.89,WNW,292,6.3,-999.0,67,-99.99,,,0.00,Acu-Link.com,2013-11-08 05:25:00,
2013-11-08 00:41:00,39.0,28.6,29.90,West,270,2.2,-999.0,66,-99.99,,,0.00,Acu-Link.com,2013-11-08 05:41:00,
2013-11-08 00:56:00,38.3,28.0,29.90,West,270,5.8,-999.0,66,-99.99,,,0.00,Acu-Link.com,2013-11-08 05:56:00,
2013-11-08 01:11:00,38.1,27.8,29.90,WNW,292,2.2,-999.0,66,-99.99,,,0.00,Acu-Link.com,2013-11-08 06:11:00,
2013-11-08 01:26:00,37.2,27.6,29.90,West,270,1.7,-999.0,68,-99.99,,,0.00,Acu-Link.com,2013-11-08 06:26:00,
2013-11-08 01:41:00,36.5,27.3,29.90,West,270,2.7,-999.0,69,-99.99,,,0.00,Acu-Link.com,2013-11-08 06:41:00,
2013-11-08 01:57:00,36.7,27.5,29.90,WSW,247,3.2,-999.0,69,-99.99,,,0.00,Acu-Link.com,2013-11-08 06:57:00,
2013-11-08 02:12:00,36.5,27.0,29.90,SW,225,3.2,-999.0,68,-99.99,,,0.00,Acu-Link.com,2013-11-08 07:12:00,
2013-11-08 02:27:00,36.5,27.0,29.90,NW,315,3.7,-999.0,68,-99.99,,,0.00,Acu-Link.com,2013-11-08 07:27:00,
2013-11-08 02:42:00,36.7,27.5,29.91,WSW,247,2.7,-999.0,69,-99.99,,,0.00,Acu-Link.com,2013-11-08 07:42:00,
2013-11-08 11:01:00,43.7,31.9,30.01,West,270,4.2,-999.0,63,-99.99,,,0.00,Acu-Link.com,2013-11-08 16:01:00,
2013-11-08 11:16:00,46.2,33.1,30.00,West,270,7.3,-999.0,60,-99.99,,,0.00,Acu-Link.com,2013-11-08 16:16:00,
2013-11-08 11:31:00,44.6,31.6,30.01,NW,315,7.8,-999.0,60,-99.99,,,0.00,Acu-Link.com,2013-11-08 16:31:00,
2013-11-08 11:47:00,45.3,31.8,30.01,WNW,292,4.7,-999.0,59,-99.99,,,0.00,Acu-Link.com,2013-11-08 16:47:00,
2013-11-08 12:02:00,42.6,33.2,30.01,West,270,2.7,-999.0,69,-99.99,,,0.00,Acu-Link.com,2013-11-08 17:02:00,
2013-11-08 12:18:00,42.8,33.7,30.01,WNW,292,3.7,-999.0,70,-99.99,,,0.00,Acu-Link.com,2013-11-08 17:18:00,
2013-11-08 12:33:00,44.6,33.2,30.00,NW,315,2.7,-999.0,64,-99.99,,,0.00,Acu-Link.com,2013-11-08 17:33:00,
2013-11-08 12:48:00,47.5,31.2,29.99,SW,225,2.2,-999.0,53,-99.99,,,0.00,Acu-Link.com,2013-11-08 17:48:00,
2013-11-08 13:03:00,47.5,31.7,30.00,West,270,8.9,-999.0,54,-99.99,,,0.00,Acu-Link.com,2013-11-08 18:03:00,
2013-11-08 13:18:00,44.8,32.6,30.01,NNE,22,4.2,-999.0,62,-99.99,,,0.00,Acu-Link.com,2013-11-08 18:18:00,
2013-11-08 13:33:00,45.7,32.2,30.00,West,270,3.2,-999.0,59,-99.99,,,0.00,Acu-Link.com,2013-11-08 18:33:00,
2013-11-08 13:48:00,48.0,30.3,30.00,West,270,2.7,-999.0,50,-99.99,,,0.00,Acu-Link.com,2013-11-08 18:48:00,
2013-11-08 14:03:00,47.1,29.4,30.01,NW,315,7.8,-999.0,50,-99.99,,,0.00,Acu-Link.com,2013-11-08 19:03:00,
2013-11-08 14:18:00,45.0,32.4,30.01,NNW,337,8.3,-999.0,61,-99.99,,,0.00,Acu-Link.com,2013-11-08 19:18:00,
2013-11-08 14:34:00,43.9,31.7,30.03,NNW,337,5.3,-999.0,62,-99.99,,,0.00,Acu-Link.com,2013-11-08 19:34:00,
2013-11-08 14:49:00,43.9,31.7,30.04,WSW,247,5.3,-999.0,62,-99.99,,,0.00,Acu-Link.com,2013-11-08 19:49:00,
2013-11-08 15:04:00,44.8,32.6,30.03,NW,315,3.2,-999.0,62,-99.99,,,0.00,Acu-Link.com,2013-11-08 20:04:00,
2013-11-08 15:20:00,43.7,30.7,30.03,West,270,2.7,-999.0,60,-99.99,,,0.00,Acu-Link.com,2013-11-08 20:20:00,
2013-11-08 15:35:00,42.8,30.7,30.03,WSW,247,3.7,-999.0,62,-99.99,,,0.00,Acu-Link.com,2013-11-08 20:35:00,
2013-11-08 15:50:00,45.5,31.2,30.04,WNW,292,2.7,-999.0,57,-99.99,,,0.00,Acu-Link.com,2013-11-08 20:50:00,
2013-11-08 16:05:00,46.0,30.3,30.04,South,180,4.2,-999.0,54,-99.99,,,0.00,Acu-Link.com,2013-11-08 21:05:00,
2013-11-08 16:20:00,46.6,28.5,30.05,West,270,2.7,-999.0,49,-99.99,,,0.00,Acu-Link.com,2013-11-08 21:20:00,
2013-11-08 16:36:00,45.9,30.2,30.06,West,270,6.8,-999.0,54,-99.99,,,0.00,Acu-Link.com,2013-11-08 21:36:00,
2013-11-08 16:51:00,44.1,30.3,30.06,WNW,292,2.7,-999.0,58,-99.99,,,0.00,Acu-Link.com,2013-11-08 21:51:00,
2013-11-08 17:06:00,43.3,30.4,30.06,SW,225,4.7,-999.0,60,-99.99,,,0.00,Acu-Link.com,2013-11-08 22:06:00,
2013-11-08 17:21:00,42.8,30.7,30.07,WNW,292,0.0,-999.0,62,-99.99,,,0.00,Acu-Link.com,2013-11-08 22:21:00,
2013-11-08 17:37:00,42.6,31.3,30.07,West,270,0.0,-999.0,64,-99.99,,,0.00,Acu-Link.com,2013-11-08 22:37:00,
2013-11-08 17:52:00,42.3,31.4,30.08,NNW,337,1.7,-999.0,65,-99.99,,,0.00,Acu-Link.com,2013-11-08 22:52:00,
2013-11-08 18:07:00,41.9,31.8,30.09,West,270,0.0,-999.0,67,-99.99,,,0.00,Acu-Link.com,2013-11-08 23:07:00,
2013-11-08 18:22:00,41.7,31.2,30.10,West,270,4.2,-999.0,66,-99.99,,,0.00,Acu-Link.com,2013-11-08 23:22:00,
2013-11-08 18:37:00,41.2,31.5,30.12,West,270,3.7,-999.0,68,-99.99,,,0.00,Acu-Link.com,2013-11-08 23:37:00,
2013-11-08 18:52:00,41.2,31.1,30.11,West,270,5.8,-999.0,67,-99.99,,,0.00,Acu-Link.com,2013-11-08 23:52:00,
2013-11-08 19:08:00,41.4,30.5,30.11,West,270,5.3,-999.0,65,-99.99,,,0.00,Acu-Link.com,2013-11-09 00:08:00,
2013-11-08 19:23:00,41.2,29.6,30.13,WNW,292,0.0,-999.0,63,-99.99,,,0.00,Acu-Link.com,2013-11-09 00:23:00,
2013-11-08 19:38:00,40.5,29.7,30.12,WNW,292,0.0,-999.0,65,-99.99,,,0.00,Acu-Link.com,2013-11-09 00:38:00,
2013-11-08 19:53:00,40.1,29.7,30.12,East,90,0.0,-999.0,66,-99.99,,,0.00,Acu-Link.com,2013-11-09 00:53:00,
2013-11-08 20:08:00,39.7,29.7,30.11,SW,225,1.7,-999.0,67,-99.99,,,0.00,Acu-Link.com,2013-11-09 01:08:00,
2013-11-08 20:24:00,39.9,29.8,30.12,West,270,2.2,-999.0,67,-99.99,,,0.00,Acu-Link.com,2013-11-09 01:24:00,
2013-11-08 20:39:00,39.6,29.6,30.11,West,270,0.0,-999.0,67,-99.99,,,0.00,Acu-Link.com,2013-11-09 01:39:00,
2013-11-08 20:54:00,38.7,29.4,30.12,West,270,3.7,-999.0,69,-99.99,,,0.00,Acu-Link.com,2013-11-09 01:54:00,
2013-11-08 21:24:00,39.7,29.3,30.13,North,0,1.1,-999.0,66,-99.99,,,0.00,Acu-Link.com,2013-11-09 02:24:00,
2013-11-08 21:39:00,39.6,29.6,30.14,West,270,2.2,-999.0,67,-99.99,,,0.00,Acu-Link.com,2013-11-09 02:39:00,
2013-11-08 21:55:00,39.6,29.6,30.12,SW,225,1.1,-999.0,67,-99.99,,,0.00,Acu-Link.com,2013-11-09 02:55:00,
2013-11-08 22:10:00,39.6,29.9,30.13,WNW,292,0.0,-999.0,68,-99.99,,,0.00,Acu-Link.com,2013-11-09 03:10:00,
2013-11-08 22:25:00,39.6,29.6,30.13,NE,45,2.7,-999.0,67,-99.99,,,0.00,Acu-Link.com,2013-11-09 03:25:00,
2013-11-08 22:40:00,39.6,29.6,30.15,WSW,247,1.1,-999.0,67,-99.99,,,0.00,Acu-Link.com,2013-11-09 03:40:00,
2013-11-08 22:55:00,39.2,29.5,30.14,NW,315,0.0,-999.0,68,-99.99,,,0.00,Acu-Link.com,2013-11-09 03:55:00,
2013-11-08 23:10:00,39.2,29.5,30.15,NNW,337,1.1,-999.0,68,-99.99,,,0.00,Acu-Link.com,2013-11-09 04:10:00,
2013-11-08 23:26:00,39.0,29.7,30.14,NW,315,0.0,-999.0,69,-99.99,,,0.00,Acu-Link.com,2013-11-09 04:26:00,
2013-11-08 23:41:00,39.0,30.1,30.14,NW,315,0.0,-999.0,70,-99.99,,,0.00,Acu-Link.com,2013-11-09 04:41:00,
2013-11-08 23:56:00,38.8,30.2,30.15,SW,225,0.0,-999.0,71,-99.99,,,0.00,Acu-Link.com,2013-11-09 04:56:00,